Погода в Ивановке

Украина / Черниговская область     51°22′34″N   31°16′49″E
темп.,
°C
ветер,
м/с
пор.,
м/с
влажн.,
%
обл.,
%
осадки,
мм/ч
давл.,
гПа
погр.,
м
16 сентября, чт
чт1600:00+10ссз33640 0.0 101927
03:00+8ссв337445 0.0 101928
06:00+8св337470 0.0 102042
09:00+12всв335521 0.0 1020267
12:00+16св22440 0.0 10201000
15:00+18с12415 0.0 10191371
18:00+17св22518 0.0 101843
21:00+12в3552100 0.0 101969
17 сентября, пт
пт1700:00+11вюв375199 0.0 1018151
03:00+12юв3748100 0.0 1017194
06:00+12юв3858100 0.1 1015190
09:00+11в5871100 0.8 1014169
12:00+10вюв5889100 3.9 1013209
15:00+11вюв51088100 6.8 1012283
18:00+11в51090100 1.2 1010215
21:00+10в6128599 1.3 1010303
18 сентября, сб
сб1800:00+10в71494100 0.6 1010366
03:00+10в81493100 0.8 1009411
06:00+10в71390100 0.8 1007389
09:00+11в71398100 4.9 1006454
12:00+11вюв71497100 2.9 1006531
15:00+12юв5998100 5.6 1006419
18:00+14юз3887100 0.1 1007398
21:00+13ююв2291100 0.2 100922
19 сентября, вс
вс1900:00+13ююв119298 0.1 101018
03:00+11юз239418 0.1 101060
06:00+9юз119328 0.0 101110
09:00+12юв2284100 0.0 1011184
12:00+14ююв2379100 0.0 1011538
15:00+13ю1285100 0.1 1011155
18:00+14ю1183100 0.2 101022
21:00+12з1297100 2.1 101068
20 сентября, пн
пн2000:00+11св2597100 3.1 1010335
03:00+10в51098100 5.0 1009513
06:00+9юз1298100 5.4 1008185
09:00+9св5786100 0.1 1010433
12:00+10св5680100 0.0 1010567
15:00+11ссв5575100 0.0 1011702
18:00+10ссв4578100 0.6 1011698
21:00+9с4687100 1.3 1012386